Regional Weather Roundup
Issued by NWS

Home | Current Version | Previous Version | Graphics & Text | Print | Product List | Glossary On
Versions: 1 2 3 4 5 6 7 8 9 10 11 12 13 14 15 16 17 18 19 20 21 22 23 24 25 26 27 28 29 30 31 32 33 34 35 36 37 38 39 40 41 42 43 44 45 46 47 48 49 50
000
ASUS45 KSLC 270010
RWRUT

UTAH REGIONAL WEATHER ROUNDUP
NATIONAL WEATHER SERVICE SALT LAKE CITY UT
500 PM MST FRI DEC 26 2014

UTZ001>011-023>025-270100-

NORTHERN UTAH

CITY           SKY/WX    TMP DP  RH WIND       PRES   REMARKS
BRIGHAM CITY   CLEAR     28  14  57 W3        30.11R
HILL AFB       CLEAR     24  11  57 N5        30.08R WCI  19
LOGAN          CLEAR     20  12  71 SW3       30.10R
OGDEN          CLEAR     24  13  62 NW6       30.09R WCI  17
PROVO AIRPORT  MOCLDY    27  14  59 NW16      30.08R WCI  14
SALT LAKE CITY PTCLDY    24  15  68 N6        30.11R WCI  17
VERNAL         CLOUDY    25  14  63 VRB7      29.98R WCI  17
WENDOVER       CLOUDY    30  10  43 N17       30.14R WCI  18
HEBER CITY     CLOUDY    19  16  86 CALM      30.01R
WEST JORDAN    MOCLDY    21  18  86 N6        30.10R WCI  14

$$

UTZ012>022-026-027-270100-

SOUTHERN/CENTRAL UTAH

CITY           SKY/WX    TMP DP  RH WIND       PRES   REMARKS
BLANDING       CLOUDY    27  13  56 NW18G25   29.97R WCI  14
BRYCE CANYON   FLURRIES  14   8  77 NW16G28   29.93R WCI  -2
CEDAR CITY     PTCLDY    21  13  71 NE8       30.05R WCI  11
DELTA          CLOUDY    26  16  66 N8        30.11R WCI  18
MILFORD        CLOUDY    21  15  78 NW8       30.09R WCI  11
MOAB/CYNLANDS  MOCLDY    22  16  78 CALM      29.96R
PRICE          CLEAR     25   7  46 NW14G21   29.93R WCI  13
ST GEORGE      PTCLDY    39  12  33 NE21G30   30.08R WCI  29
KANAB          CLEAR     32   9  37 N16       30.04R WCI  21

$$

REGIONAL REPORTS     COLORADO/ARIZONA

CITY           SKY/WX    TMP DP  RH WIND       PRES   REMARKS
CRAIG, CO      LGT SNOW  15  11  83 W12       29.92R FOG     WCI   2
GRAND JUNCTION CLOUDY    25  21  85 NE6       29.95R WCI  18
RIFLE          CLOUDY    23  10  57 W14       29.92R WCI  11
MONTROSE       LGT SNOW  24  18  77 W10       29.93R WCI  14
CORTEZ         CLOUDY    25  21  85 NW8       29.91R WCI  16
PAGE, AZ       MOCLDY    40   8  26 W7        29.95R
GRAND CANYON   MOCLDY    25  11  55 VRB5      29.96R WCI  19
KINGMAN        CLEAR     41  10  28 NW17      30.05R
FLAGSTAFF      PTCLDY    25   8  48 VRB6      29.93R WCI  18

$$

REGIONAL REPORTS    NEVADA/IDAHO/WYOMING

CITY           SKY/WX    TMP DP  RH WIND       PRES   REMARKS
LAS VEGAS, NV  PTCLDY    49   7  18 NW12      30.06R
ELY            CLOUDY    21  12  68 N6        30.09R WCI  13
ELKO           CLOUDY    28  17  63 NE3       30.16R
POCATELLO, ID  MOCLDY    19  17  92 S10       30.14R WCI   7
BURLEY         CLOUDY    22  17  81 W3        30.15R
EVANSTON, WY   LGT SNOW  16  13  88 N7        29.96R FOG     WCI   6
ROCK SPRINGS   FLURRIES  15   9  76 N7        29.96R WCI   5

$$


USA.gov is the U.S. government's official web portal to all federal, state and local government web resources and services.